Rochester/St. Mary\'s Hospita, MN

2:59 PM CDT on June 25, 2018 (GMT -0500)
Rochester/St. Mary\'s Hospita

Weather History for K9MN - October, 2017

Change the Weather History Date:

Monday, October 9, 2017

  Actual Average (KRST) Record (KRST)
Temperature  
Mean Temperature 51 °F -  
Max Temperature 60 °F 57 °F 90 °F (2010)
Min Temperature 43 °F 38 °F 21 °F (1915)
Degree Days  
Heating Degree Days 14    
Growing Degree Days 1 (Base 50)    
Moisture  
Dew Point 35 °F    
Average Humidity 56    
Maximum Humidity 75    
Minimum Humidity 31    
Precipitation  
Precipitation 0.00 in - - ()
Sea Level Pressure  
Sea Level Pressure 30.05 in    
Wind  
Wind Speed 9 mph (NW)    
Max Wind Speed 20 mph    
Max Gust Speed 30 mph    
Visibility 10 miles    
Events      
Averages and records for this station are not official NWS values.
T = Trace of Precipitation, MM = Missing Value Source: NWS Daily Summary

Daily Weather History Graph

Daily Weather History Graph

Search for Another Location

Airport or City:

Astronomy

Oct. 09, 2017 Rise Set
Actual Time 7:17 AM CDT 6:35 PM CDT
Civil Twilight 6:48 AM CDT 7:04 PM CDT
Nautical Twilight 6:15 AM CDT 7:38 PM CDT
Astronomical Twilight 5:41 AM CDT 8:11 PM CDT
Moon 9:39 PM CDT (10/9) 11:34 AM CDT (10/9)
Length of Visible Light 12h 16m
Length of Day
11h 18m
Waning Gibbous, 80% of the Moon is Illuminated
Oct 9
Waning Gibbous
Oct 12
Last Quarter
Oct 19
New
Oct 27
First Quarter
Nov 4
Full

Hourly Weather History & Observations

Time (CDT) Temp. Windchill Dew Point Humidity Pressure Visibility Wind Dir Wind Speed Gust Speed Precip Events Conditions
12:12 AM 55.4 °F - 39.0 °F 54% 29.83 in 10.0 mi NW 5.8 mph - N/A   Overcast
12:32 AM 55.2 °F - 38.5 °F 53% 29.83 in 10.0 mi NW 8.1 mph - N/A   Overcast
12:52 AM 54.5 °F - 37.9 °F 54% 29.84 in 10.0 mi NW 10.4 mph 17.3 mph N/A   Overcast
1:12 AM 54.1 °F - 37.9 °F 54% 29.85 in 10.0 mi NW 6.9 mph 16.1 mph N/A   Mostly Cloudy
1:32 AM 53.6 °F - 37.9 °F 55% 29.86 in 10.0 mi NW 10.4 mph 16.1 mph N/A   Overcast
1:51 AM 52.2 °F - 37.9 °F 58% 29.87 in 10.0 mi NW 8.1 mph 16.1 mph N/A   Scattered Clouds
2:12 AM 51.4 °F - 37.9 °F 60% 29.88 in 10.0 mi NNW 6.9 mph - N/A   Scattered Clouds
2:32 AM 51.1 °F - 38.1 °F 61% 29.88 in 10.0 mi NW 9.2 mph 17.3 mph N/A   Overcast
2:51 AM 50.5 °F - 38.3 °F 63% 29.89 in 10.0 mi NW 9.2 mph - N/A   Overcast
3:12 AM 50.0 °F - 38.1 °F 64% 29.89 in 10.0 mi NW 8.1 mph - N/A   Mostly Cloudy
3:32 AM 49.6 °F - 37.8 °F 64% 29.90 in 10.0 mi NW 8.1 mph 19.6 mph N/A   Scattered Clouds
3:51 AM 49.1 °F - 37.8 °F 65% 29.90 in 10.0 mi NW 9.2 mph - N/A   Clear
4:12 AM 49.1 °F - 37.6 °F 64% 29.91 in 10.0 mi NW 8.1 mph - N/A   Clear
4:31 AM 48.6 °F - 37.6 °F 66% 29.91 in 10.0 mi NW 8.1 mph - N/A   Clear
4:52 AM 48.2 °F - 37.6 °F 67% 29.92 in 10.0 mi NW 8.1 mph - N/A   Clear
5:12 AM 47.7 °F - 37.4 °F 68% 29.93 in 10.0 mi NW 9.2 mph - N/A   Clear
5:31 AM 47.5 °F - 37.4 °F 68% 29.95 in 10.0 mi NW 6.9 mph - N/A   Clear
5:52 AM 47.3 °F - 37.4 °F 68% 29.96 in 10.0 mi NW 8.1 mph - N/A   Clear
6:12 AM 47.3 °F - 37.6 °F 69% 29.97 in 10.0 mi WNW 5.8 mph - N/A   Clear
6:31 AM 46.8 °F - 37.8 °F 71% 29.98 in 10.0 mi NW 8.1 mph - N/A   Clear
6:52 AM 46.4 °F 45.2 °F 37.9 °F 72% 29.97 in 10.0 mi NNW 3.5 mph - N/A   Clear
7:12 AM 46.0 °F - 37.9 °F 73% 29.98 in 10.0 mi Calm Calm - N/A   Clear
7:31 AM 45.7 °F 43.4 °F 38.3 °F 75% 29.99 in 10.0 mi NNW 4.6 mph - N/A   Clear
7:52 AM 46.4 °F 44.3 °F 38.7 °F 74% 30.01 in 10.0 mi WNW 4.6 mph - N/A   Clear
8:12 AM 46.6 °F - 38.7 °F 74% 30.02 in 10.0 mi WNW 8.1 mph - N/A   Clear
8:31 AM 47.3 °F - 39.2 °F 73% 30.03 in 10.0 mi NW 6.9 mph - N/A   Clear
8:52 AM 48.6 °F - 38.7 °F 69% 30.05 in 10.0 mi NW 12.7 mph 18.4 mph N/A   Clear
9:12 AM 49.6 °F - 38.7 °F 66% 30.06 in 10.0 mi NNW 8.1 mph - N/A   Clear
9:31 AM 50.9 °F - 38.5 °F 62% 30.06 in 10.0 mi NNW 9.2 mph 17.3 mph N/A   Clear
9:52 AM 52.2 °F - 38.3 °F 59% 30.07 in 10.0 mi NNW 11.5 mph 19.6 mph N/A   Clear
10:12 AM 52.9 °F - 38.8 °F 59% 30.07 in 10.0 mi NNW 11.5 mph 18.4 mph N/A   Clear
10:31 AM 53.4 °F - 38.8 °F 58% 30.07 in 10.0 mi NW 5.8 mph 17.3 mph N/A   Clear
10:52 AM 55.2 °F - 38.1 °F 53% 30.07 in 10.0 mi NNW 10.4 mph - N/A   Clear
11:12 AM 56.1 °F - 36.3 °F 47% 30.07 in 10.0 mi NW 6.9 mph 17.3 mph N/A   Clear
11:31 AM 56.7 °F - 35.1 °F 44% 30.07 in 10.0 mi NNW 11.5 mph 19.6 mph N/A   Clear
11:52 AM 57.6 °F - 35.4 °F 43% 30.07 in 10.0 mi North 6.9 mph 17.3 mph N/A   Clear
12:12 PM 58.5 °F - 34.5 °F 41% 30.09 in 10.0 mi North 10.4 mph 19.6 mph N/A   Clear
12:32 PM 58.3 °F - 34.2 °F 40% 30.09 in 10.0 mi NW 10.4 mph 19.6 mph N/A   Clear
12:52 PM 58.6 °F - 33.6 °F 39% 30.07 in 10.0 mi WNW 13.8 mph 19.6 mph N/A   Clear
1:11 PM 58.5 °F - 32.7 °F 38% 30.08 in 10.0 mi NW 8.1 mph 16.1 mph N/A   Clear
1:32 PM 59.4 °F - 30.9 °F 34% 30.08 in 10.0 mi NW 6.9 mph 23.0 mph N/A   Clear
1:52 PM 59.9 °F - 29.5 °F 32% 30.08 in 10.0 mi NNW 5.8 mph 16.1 mph N/A   Clear
2:11 PM 59.9 °F - 28.9 °F 31% 30.07 in 10.0 mi North 10.4 mph 19.6 mph N/A   Clear
2:32 PM 59.4 °F - 30.6 °F 34% 30.07 in 10.0 mi NW 11.5 mph 21.9 mph N/A   Clear
2:52 PM 59.2 °F - 29.1 °F 32% 30.08 in 10.0 mi NW 12.7 mph 24.2 mph N/A   Clear
3:11 PM 59.9 °F - 30.2 °F 33% 30.09 in 10.0 mi NW 10.4 mph 20.7 mph N/A   Clear
3:32 PM 59.0 °F - 30.9 °F 35% 30.10 in 10.0 mi NW 12.7 mph 26.5 mph N/A   Clear
3:52 PM 58.1 °F - 31.3 °F 36% 30.10 in 10.0 mi NW 11.5 mph 24.2 mph N/A   Scattered Clouds
4:11 PM 58.1 °F - 31.6 °F 37% 30.10 in 10.0 mi NW 9.2 mph 21.9 mph N/A   Clear
4:32 PM 57.7 °F - 32.4 °F 38% 30.10 in 10.0 mi NW 11.5 mph 18.4 mph N/A   Clear
4:52 PM 56.5 °F - 32.2 °F 40% 30.12 in 10.0 mi NW 12.7 mph 23.0 mph N/A   Scattered Clouds
5:11 PM 54.1 °F - 31.8 °F 43% 30.12 in 10.0 mi NW 16.1 mph 26.5 mph N/A   Overcast
5:32 PM 53.4 °F - 32.0 °F 44% 30.13 in 10.0 mi WNW 12.7 mph 23.0 mph N/A   Overcast
5:52 PM 52.5 °F - 32.2 °F 46% 30.14 in 10.0 mi WNW 19.6 mph 27.6 mph N/A   Overcast
6:11 PM 51.1 °F - 32.2 °F 48% 30.15 in 10.0 mi WNW 19.6 mph 28.8 mph N/A   Overcast
6:32 PM 49.6 °F - 32.7 °F 52% 30.17 in 10.0 mi WNW 17.3 mph 27.6 mph N/A   Overcast
6:52 PM 48.7 °F - 32.2 °F 53% 30.17 in 10.0 mi NW 19.6 mph 29.9 mph N/A   Overcast
7:11 PM 48.2 °F - 32.0 °F 54% 30.18 in 10.0 mi NW 11.5 mph 27.6 mph N/A   Overcast
7:32 PM 48.2 °F - 32.2 °F 54% 30.19 in 10.0 mi NW 11.5 mph 19.6 mph N/A   Overcast
7:52 PM 47.7 °F - 32.0 °F 55% 30.19 in 10.0 mi NW 10.4 mph 18.4 mph N/A   Overcast
8:11 PM 47.1 °F - 32.4 °F 57% 30.19 in 10.0 mi NW 10.4 mph 17.3 mph N/A   Overcast
8:32 PM 46.4 °F 41.5 °F 33.1 °F 60% 30.20 in 10.0 mi NW 10.4 mph 16.1 mph N/A   Overcast
8:52 PM 45.5 °F 39.6 °F 33.6 °F 63% 30.20 in 10.0 mi NW 12.7 mph 17.3 mph N/A   Overcast
9:32 PM 44.6 °F 39.7 °F 33.1 °F 64% 30.22 in 10.0 mi NW 9.2 mph 18.4 mph N/A   Overcast
9:52 PM 44.1 °F 38.6 °F 33.4 °F 66% 30.22 in 10.0 mi WNW 10.4 mph 17.3 mph N/A   Mostly Cloudy
10:11 PM 44.2 °F 39.7 °F 33.8 °F 67% 30.22 in 10.0 mi NW 8.1 mph - N/A   Mostly Cloudy
10:32 PM 43.9 °F 39.9 °F 34.2 °F 69% 30.22 in 10.0 mi NW 6.9 mph - N/A   Scattered Clouds
10:52 PM 44.1 °F 41.5 °F 34.7 °F 70% 30.22 in 10.0 mi NW 4.6 mph - N/A   Scattered Clouds
11:11 PM 44.2 °F 40.3 °F 34.3 °F 68% 30.23 in 10.0 mi NW 6.9 mph - N/A   Overcast
11:32 PM 44.6 °F 41.4 °F 35.2 °F 70% 30.23 in 10.0 mi WNW 5.8 mph - N/A   Mostly Cloudy
11:52 PM 44.2 °F 41.8 °F 35.4 °F 71% 30.24 in 10.0 mi WNW 4.6 mph - N/A   Scattered Clouds